Location: Unspecified
(52.4292°N, 19.3359°E)
Time: 23:00:40
(UTC+02:00)

ISS - Visible Passes

Search period start: 26 March 2023 00:00
Search period end: 05 April 2023 01:00
Orbit: 414 x 422 km, 51.6° (Epoch: 26 March)

Date Brightness Start Highest point End Pass type
(mag) Time Alt. Az. Time Alt. Az. Time Alt. Az.
26 Mar -3.7 19:43:59 10° W 19:47:21 79° S 19:50:41 10° E visible
26 Mar -2.9 21:20:46 10° W 21:23:36 40° SW 21:23:36 40° SW visible
27 Mar -3.4 20:32:43 10° W 20:36:00 54° SSW 20:37:30 28° SE visible
27 Mar -0.9 22:09:58 10° W 22:10:26 12° WSW 22:10:26 12° WSW visible
28 Mar -3.6 19:44:37 10° W 19:47:58 66° SSW 19:51:17 10° ESE visible
28 Mar -2.1 21:21:36 10° W 21:24:18 24° SW 21:24:18 24° SW visible
29 Mar -2.6 20:33:20 10° W 20:36:23 33° SSW 20:38:10 19° SSE visible
30 Mar -2.9 19:45:06 10° W 19:48:19 43° SSW 19:51:31 10° SE visible
30 Mar -1.2 21:22:55 10° WSW 21:24:27 13° SW 21:24:57 12° SSW visible
31 Mar -1.5 20:34:05 10° W 20:36:27 18° SW 20:38:49 10° S visible
